When you browse on this site, cookies collect data to enhance your experience and personalize the content and advertising you see.
Visit our Privacy Policy to learn more. By continuing to use the site, you agree to this use of cookies and data.
  • In Hungary
  • List of Countries
  • For 7 days
  • Water Temperature
  • Weather Map
  • News
  • Weather Widgets
  • user-avatar
    Login

    Hourly Weather Everett

    Today, 12 November, Tuesday

    Time Temperature Precipitation Wind Pressure Humidity
    00:00 +7°C° 0 mm 2 mps 757 mmHg 93%
    01:00 +6°C° 0 mm 2 mps 756 mmHg 91%
    02:00 +7°C° 0 mm 2 mps 755 mmHg 92%
    03:00 +7°C° 0 mm 2 mps 754 mmHg 93%
    04:00 +9°C° 0 mm 1 mps 753 mmHg 95%
    05:00 +8°C° 0 mm 2 mps 752 mmHg 93%
    06:00 +9°C° 0 mm 3 mps 752 mmHg 91%
    07:00 +10°C° 0 mm 3 mps 751 mmHg 89%
    08:00 +11°C° 0 mm 4 mps 751 mmHg 83%
    09:00 +12°C° 0 mm 5 mps 751 mmHg 77%
    10:00 +13°C° 0 mm 6 mps 751 mmHg 72%
    11:00 +10°C° 0.3 mm 6 mps 751 mmHg 73%
    12:00 +8°C° 0.3 mm 7 mps 751 mmHg 74%
    13:00 +5°C° 0.3 mm 7 mps 752 mmHg 75%
    14:00 +3°C° 0.1 mm 7 mps 752 mmHg 71%
    15:00 0°C° 0.1 mm 7 mps 753 mmHg 66%
    16:00 -2°C° 0.1 mm 7 mps 754 mmHg 62%
    17:00 -2°C° 0 mm 7 mps 755 mmHg 60%
    18:00 -3°C° 0 mm 6 mps 756 mmHg 58%
    19:00 -4°C° 0 mm 6 mps 757 mmHg 57%
    20:00 -6°C° 0 mm 7 mps 758 mmHg 52%
    21:00 -7°C° 0 mm 7 mps 758 mmHg 46%
    22:00 -8°C° 0 mm 8 mps 759 mmHg 41%
    23:00 -8°C° 0 mm 8 mps 759 mmHg 40%

    Tomorrow, 13 November, Wednesday

    Time Temperature Precipitation Wind Pressure Humidity
    00:00 -10°C° 0 mm 8 mps 759 mmHg 38%
    01:00 -10°C° 0 mm 8 mps 760 mmHg 37%
    02:00 -11°C° 0 mm 8 mps 760 mmHg 36%
    03:00 -11°C° 0 mm 8 mps 761 mmHg 35%
    04:00 -11°C° 0 mm 8 mps 761 mmHg 34%
    05:00 -12°C° 0 mm 7 mps 762 mmHg 34%
    06:00 -12°C° 0 mm 7 mps 763 mmHg 35%
    07:00 -12°C° 0 mm 7 mps 763 mmHg 36%
    08:00 -11°C° 0 mm 7 mps 764 mmHg 34%
    09:00 -9°C° 0 mm 6 mps 765 mmHg 32%
    10:00 -6°C° 0 mm 6 mps 765 mmHg 30%
    11:00 -6°C° 0 mm 6 mps 765 mmHg 28%
    12:00 -5°C° 0 mm 6 mps 765 mmHg 26%
    13:00 -4°C° 0 mm 5 mps 766 mmHg 24%
    14:00 -4°C° 0 mm 5 mps 766 mmHg 25%
    15:00 -4°C° 0 mm 5 mps 767 mmHg 26%
    16:00 -3°C° 0 mm 4 mps 767 mmHg 26%
    17:00 -4°C° 0 mm 4 mps 768 mmHg 29%
    18:00 -4°C° 0 mm 4 mps 769 mmHg 32%
    19:00 -5°C° 0 mm 4 mps 770 mmHg 35%
    20:00 -5°C° 0 mm 3 mps 770 mmHg 37%
    21:00 -5°C° 0 mm 2 mps 771 mmHg 40%
    22:00 -5°C° 0 mm 2 mps 771 mmHg 42%
    23:00 -3°C° 0 mm 1 mps 771 mmHg 42%

    Day after tomorrow, 14 November, Thursday

    Time Temperature Precipitation Wind Pressure Humidity
    00:00 -3°C° 0 mm 1 mps 771 mmHg 43%
    01:00 -3°C° 0 mm 1 mps 772 mmHg 43%
    02:00 -4°C° 0 mm 0 mps 772 mmHg 43%
    03:00 -4°C° 0 mm 0 mps 772 mmHg 42%
    04:00 -4°C° 0 mm 0 mps 772 mmHg 42%
    05:00 -3°C° 0 mm 1 mps 772 mmHg 40%
    06:00 -2°C° 0 mm 1 mps 772 mmHg 38%
    07:00 -2°C° 0 mm 1 mps 772 mmHg 37%
    08:00 -3°C° 0 mm 2 mps 772 mmHg 36%
    09:00 -2°C° 0 mm 2 mps 772 mmHg 36%
    10:00 -1°C° 0 mm 2 mps 772 mmHg 35%
    11:00 0°C° 0 mm 3 mps 772 mmHg 40%
    12:00 +2°C° 0 mm 3 mps 771 mmHg 44%
    13:00 +3°C° 0 mm 4 mps 771 mmHg 49%
    14:00 +2°C° 0 mm 3 mps 770 mmHg 56%
    15:00 +2°C° 0 mm 3 mps 770 mmHg 63%
    16:00 +2°C° 0 mm 3 mps 769 mmHg 71%
    17:00 +1°C° 0 mm 3 mps 769 mmHg 76%
    18:00 +1°C° 0 mm 3 mps 769 mmHg 82%
    19:00 +1°C° 0 mm 3 mps 768 mmHg 87%
    20:00 +1°C° 0 mm 3 mps 768 mmHg 87%
    21:00 +2°C° 0 mm 2 mps 768 mmHg 88%
    22:00 +2°C° 0 mm 2 mps 768 mmHg 88%
    23:00 +2°C° 0 mm 2 mps 767 mmHg 88%

    15 November, Friday

    Time Temperature Precipitation Wind Pressure Humidity
    00:00 +2°C° 0 mm 2 mps 767 mmHg 87%
    01:00 +1°C° 0 mm 3 mps 766 mmHg 86%
    02:00 +1°C° 0 mm 3 mps 766 mmHg 85%
    03:00 +1°C° 0 mm 3 mps 766 mmHg 83%
    04:00 +1°C° 0 mm 3 mps 765 mmHg 82%
    05:00 +1°C° 0 mm 3 mps 765 mmHg 79%
    06:00 +1°C° 0 mm 3 mps 765 mmHg 77%
    07:00 +1°C° 0 mm 3 mps 765 mmHg 75%
    08:00 +3°C° 0 mm 3 mps 764 mmHg 65%
    09:00 +4°C° 0 mm 4 mps 764 mmHg 55%
    10:00 +6°C° 0 mm 4 mps 763 mmHg 46%
    11:00 +7°C° 0 mm 5 mps 762 mmHg 44%
    12:00 +8°C° 0 mm 5 mps 762 mmHg 42%
    13:00 +8°C° 0 mm 5 mps 761 mmHg 41%
    14:00 +8°C° 0 mm 5 mps 761 mmHg 45%
    15:00 +7°C° 0 mm 5 mps 760 mmHg 50%
    16:00 +6°C° 0 mm 4 mps 760 mmHg 54%
    17:00 +5°C° 0 mm 5 mps 760 mmHg 58%
    18:00 +3°C° 0 mm 5 mps 761 mmHg 61%
    19:00 +3°C° 0 mm 5 mps 761 mmHg 65%
    20:00 +2°C° 0 mm 5 mps 761 mmHg 65%
    21:00 +1°C° 0 mm 5 mps 762 mmHg 66%
    22:00 +1°C° 0 mm 5 mps 763 mmHg 67%
    23:00 -2°C° 0 mm 6 mps 764 mmHg 61%

    16 November, Saturday

    Time Temperature Precipitation Wind Pressure Humidity
    00:00 -4°C° 0 mm 7 mps 765 mmHg 56%
    01:00 -7°C° 0 mm 8 mps 766 mmHg 50%
    02:00 -7°C° 0 mm 7 mps 766 mmHg 46%
    03:00 -8°C° 0 mm 7 mps 767 mmHg 42%
    04:00 -8°C° 0 mm 7 mps 768 mmHg 38%
    05:00 -8°C° 0 mm 7 mps 768 mmHg 39%
    06:00 -8°C° 0 mm 7 mps 769 mmHg 40%
    07:00 -8°C° 0 mm 7 mps 769 mmHg 41%
    08:00 -7°C° 0 mm 7 mps 770 mmHg 37%
    09:00 -5°C° 0 mm 6 mps 770 mmHg 34%
    10:00 -4°C° 0 mm 6 mps 771 mmHg 31%
    11:00 -2°C° 0 mm 5 mps 771 mmHg 28%
    12:00 -1°C° 0 mm 5 mps 770 mmHg 26%
    13:00 -1°C° 0 mm 5 mps 770 mmHg 24%
    14:00 -1°C° 0 mm 5 mps 770 mmHg 25%
    15:00 -1°C° 0 mm 4 mps 771 mmHg 27%
    16:00 -2°C° 0 mm 4 mps 771 mmHg 29%
    17:00 -2°C° 0 mm 4 mps 771 mmHg 33%
    18:00 -3°C° 0 mm 4 mps 772 mmHg 37%
    19:00 -3°C° 0 mm 4 mps 772 mmHg 42%
    20:00 -3°C° 0 mm 4 mps 772 mmHg 44%
    21:00 -3°C° 0 mm 4 mps 773 mmHg 47%
    22:00 -4°C° 0 mm 4 mps 773 mmHg 49%
    23:00 -4°C° 0 mm 4 mps 772 mmHg 51%

    17 November, Sunday

    Time Temperature Precipitation Wind Pressure Humidity
    00:00 -4°C° 0 mm 4 mps 772 mmHg 52%
    01:00 -4°C° 0 mm 4 mps 772 mmHg 54%
    02:00 -4°C° 0 mm 4 mps 771 mmHg 56%
    03:00 -4°C° 0 mm 4 mps 771 mmHg 58%
    04:00 -4°C° 0 mm 3 mps 771 mmHg 60%
    05:00 -2°C° 0 mm 3 mps 771 mmHg 62%
    06:00 -2°C° 0 mm 3 mps 771 mmHg 63%
    07:00 -2°C° 0 mm 3 mps 771 mmHg 65%
    08:00 -1°C° 0 mm 3 mps 770 mmHg 63%
    09:00 +1°C° 0 mm 3 mps 770 mmHg 61%
    10:00 +2°C° 0 mm 3 mps 770 mmHg 59%
    11:00 +2°C° 0 mm 3 mps 769 mmHg 61%
    12:00 +3°C° 0 mm 3 mps 769 mmHg 62%
    13:00 +3°C° 0 mm 3 mps 768 mmHg 63%
    14:00 +3°C° 0 mm 3 mps 767 mmHg 65%
    15:00 +3°C° 0 mm 3 mps 767 mmHg 68%
    16:00 +2°C° 0 mm 3 mps 766 mmHg 70%
    17:00 +2°C° 0 mm 3 mps 766 mmHg 71%
    18:00 +2°C° 0 mm 3 mps 766 mmHg 72%
    19:00 +2°C° 0 mm 3 mps 765 mmHg 73%
    20:00 +1°C° 0 mm 3 mps 765 mmHg 74%
    21:00 +1°C° 0 mm 3 mps 765 mmHg 75%
    22:00 +1°C° 0 mm 3 mps 764 mmHg 77%
    23:00 +1°C° 0 mm 3 mps 764 mmHg 76%
    Show more